This is the latest recevied weather packets stored in our database for station/object KO4MMQ-10. If no packets are shown the sender has not sent any weather packets the latest 1 day(s).
| Time | Temp. | Humidity | Pressure | Rain* | Wind** | Luminosity | Snow |
|---|---|---|---|---|---|---|---|
| 1777996107 | 15° C | 94% | 1011.1 hPa | 4.57 mm | 0 m/s | - | - |
| 1777995507 | 15° C | 94% | 1010.8 hPa | 4.57 mm | 0 m/s | - | - |
| 1777994907 | 15° C | 94% | 1010.4 hPa | 4.57 mm | 0 m/s | - | - |
| 1777994308 | 15° C | 94% | 1010.6 hPa | 4.32 mm | 0 m/s | - | - |
| 1777992508 | 15° C | 92% | 1010.6 hPa | 3.81 mm | 0 m/s | - | - |
| 1777991908 | 15° C | 92% | 1010.8 hPa | 3.3 mm | 0 m/s | - | - |
| 1777990709 | 15° C | 90% | 1010.6 hPa | 2.03 mm | 0 m/s | - | - |
| 1777988909 | 16.11° C | 82% | 1010.5 hPa | 0 mm | 0 m/s | - | - |
| 1777987708 | 16.67° C | 78% | 1010.9 hPa | 0 mm | 0 m/s | - | - |
| 1777985908 | 16.67° C | 78% | 1010.8 hPa | 0 mm | 0.45 m/s, 215° | - | - |
| 1777984708 | 16.11° C | 78% | 1010.5 hPa | 0 mm | 0 m/s | - | - |
| 1777984108 | 16.11° C | 78% | 1010.4 hPa | 0 mm | 0 m/s | - | - |
| 1777983508 | 16.11° C | 78% | 1010.3 hPa | 0 mm | 0 m/s | - | - |
| 1777982308 | 15.56° C | 78% | 1010.3 hPa | 0 mm | 0 m/s | - | - |
| 1777981709 | 15.56° C | 78% | 1010.1 hPa | 0 mm | 0 m/s | - | - |
| 1777981108 | 15.56° C | 78% | 1010 hPa | 0 mm | 0 m/s | - | - |
| 1777980508 | 15.56° C | 78% | 1009.8 hPa | 0 mm | 0 m/s | - | - |
| 1777978708 | 16.11° C | 77% | 1009.3 hPa | 0 mm | 0 m/s | - | - |
| 1777978108 | 16.11° C | 76% | 1009.1 hPa | 0 mm | 0 m/s | - | - |
| 1777977508 | 16.11° C | 75% | 1009 hPa | 0 mm | 0 m/s | - | - |
| 1777976908 | 16.11° C | 75% | 1008.9 hPa | 0 mm | 0 m/s | - | - |
| 1777976308 | 16.11° C | 74% | 1008.9 hPa | 0 mm | 0 m/s | - | - |
| 1777975108 | 16.67° C | 73% | 1008.5 hPa | 0 mm | 0 m/s | - | - |
| 1777974508 | 16.67° C | 73% | 1008.5 hPa | 0 mm | 0 m/s | - | - |
| 1777973908 | 16.67° C | 72% | 1008.4 hPa | 0 mm | 0 m/s | - | - |
* Rain latest hour (hover to see other rain measurements)
** Current wind speed in m/s (hover to see current wind gust speed)